Akron Canton, OH

8:37 PM EDT on May 24, 2018 (GMT -0400)
Akron-Canton Regional

Weather History for KCAK - November, 2011

Change the Weather History Date:

Tuesday, November 15, 2011

  Actual Average Record
Temperature  
Mean Temperature 53 °F 42 °F  
Max Temperature 56 °F 50 °F 72 °F (1964)
Min Temperature 50 °F 34 °F 10 °F (1933)
Degree Days  
Heating Degree Days 12 23  
Month to date heating degree days 236 310  
Since 1 July heating degree days 714 865  
Cooling Degree Days 0 0  
Month to date cooling degree days 0 0  
Year to date cooling degree days 911 652  
Growing Degree Days 2 (Base 50)    
Moisture  
Dew Point 49 °F    
Average Humidity 85    
Maximum Humidity 93    
Minimum Humidity 77    
Precipitation  
Precipitation 0.01 in 0.12 in 0.95 in (2008)
Month to date precipitation 2.26 1.62  
Year to date precipitation 51.03 35.10  
Snow  
Snow 0.00 in 0.10 in - ()
Month to date snowfall T 1.0  
Since 1 July snowfall T 1.4  
Since 1 September snowfall T 1.4  
Snow Depth 0.00 in    
Sea Level Pressure  
Sea Level Pressure 29.85 in    
Wind  
Wind Speed 9 mph (SW)    
Max Wind Speed 17 mph    
Max Gust Speed 21 mph    
Visibility 9 miles    
Events Rain    
T = Trace of Precipitation, MM = Missing Value Source: NWS Daily Summary

Daily Weather History Graph

Daily Weather History Graph

Search for Another Location

Airport or City:

Astronomy

Nov. 15, 2011 Rise Set
Actual Time 7:12 AM EST 5:07 PM EST
Civil Twilight 6:43 AM EST 5:36 PM EST
Nautical Twilight 6:10 AM EST 6:10 PM EST
Astronomical Twilight 5:37 AM EST 6:42 PM EST
Moon 9:14 PM EST (11/15) 11:11 AM EST (11/15)
Length of Visible Light 10h 53m
Length of Day
9h 54m
Waning Gibbous, 79% of the Moon is Illuminated
Nov 15
Waning Gibbous
Nov 18
Last Quarter
Nov 25
New
Dec 2
First Quarter
Dec 10
Full

Hourly Weather History & Observations

Time (EST) Temp. Dew Point Humidity Pressure Visibility Wind Dir Wind Speed Gust Speed Precip Events Conditions
12:51 AM 55.0 °F 53.1 °F 93% 29.75 in 9.0 mi WSW 9.2 mph - 0.00 in Rain Light Rain
1:51 AM 55.0 °F 53.1 °F 93% 29.75 in 7.0 mi SW 6.9 mph - 0.00 in   Overcast
2:51 AM 55.9 °F 53.1 °F 90% 29.77 in 7.0 mi WSW 9.2 mph - N/A   Overcast
3:51 AM 55.0 °F 53.1 °F 93% 29.77 in 7.0 mi SSW 5.8 mph - N/A   Overcast
4:51 AM 55.0 °F 52.0 °F 89% 29.77 in 7.0 mi WNW 8.1 mph - 0.00 in   Overcast
5:51 AM 54.0 °F 51.1 °F 90% 29.78 in 6.0 mi Calm Calm - N/A   Overcast
6:51 AM 54.0 °F 52.0 °F 93% 29.81 in 5.0 mi SW 5.8 mph - 0.00 in Rain Light Rain
7:51 AM 55.4 °F 51.8 °F 88% 29.84 in 7.0 mi WSW 8.1 mph - N/A   Overcast
8:37 AM 53.6 °F 48.2 °F 82% 29.86 in 8.0 mi SW 8.1 mph - 0.00 in Rain Light Rain
8:51 AM 53.1 °F 48.9 °F 86% 29.86 in 7.0 mi SSW 10.4 mph - 0.01 in Rain Light Rain
9:51 AM 52.0 °F 46.9 °F 83% 29.88 in 10.0 mi SW 11.5 mph 20.7 mph 0.00 in   Overcast
10:22 AM 53.6 °F 46.4 °F 77% 29.90 in 10.0 mi SW 10.4 mph - N/A   Overcast
10:51 AM 53.1 °F 46.9 °F 80% 29.90 in 10.0 mi SW 11.5 mph - N/A   Overcast
11:51 AM 53.1 °F 46.9 °F 80% 29.88 in 10.0 mi SSW 10.4 mph - N/A   Overcast
12:51 PM 53.1 °F 46.9 °F 80% 29.88 in 10.0 mi SW 10.4 mph - N/A   Overcast
1:01 PM 53.6 °F 46.4 °F 77% 29.87 in 10.0 mi SSW 11.5 mph - N/A   Overcast
1:51 PM 54.0 °F 46.9 °F 77% 29.86 in 10.0 mi SW 15.0 mph - N/A   Overcast
2:51 PM 53.1 °F 46.0 °F 77% 29.84 in 10.0 mi SW 10.4 mph - N/A   Overcast
3:51 PM 53.1 °F 46.9 °F 80% 29.88 in 10.0 mi SW 9.2 mph - N/A   Overcast
4:51 PM 52.0 °F 46.9 °F 83% 29.88 in 10.0 mi SSW 8.1 mph - N/A   Overcast
4:58 PM 51.8 °F 46.4 °F 82% 29.88 in 10.0 mi SSW 9.2 mph - N/A   Mostly Cloudy
5:51 PM 52.0 °F 46.9 °F 83% 29.89 in 10.0 mi SSW 8.1 mph - N/A   Overcast
6:51 PM 50.0 °F 46.9 °F 89% 29.89 in 10.0 mi South 10.4 mph - N/A   Overcast
7:51 PM 50.0 °F 46.9 °F 89% 29.89 in 10.0 mi South 8.1 mph - N/A   Overcast
8:47 PM 51.8 °F 48.2 °F 88% 29.88 in 9.0 mi South 8.1 mph - N/A   Overcast
8:51 PM 51.1 °F 48.0 °F 89% 29.89 in 9.0 mi South 8.1 mph - N/A   Overcast
9:51 PM 52.0 °F 48.9 °F 89% 29.89 in 9.0 mi SSW 9.2 mph - N/A   Overcast
10:51 PM 52.0 °F 48.9 °F 89% 29.88 in 8.0 mi South 10.4 mph - N/A   Overcast
11:51 PM 53.1 °F 48.9 °F 86% 29.88 in 8.0 mi SW 5.8 mph - N/A   Overcast